Kimball, NE

2:35 AM MST on February 06, 2016 (GMT -0700)
Kimball Municipal-Arraj

Weather History for KIBM - June, 2013

Change the Weather History Date:

Monday, June 3, 2013

  Actual Average (KSNY) Record (KSNY)
Temperature  
Mean Temperature 69 °F 63 °F  
Max Temperature 89 °F 77 °F 94 °F (2012)
Min Temperature 49 °F 49 °F 28 °F (1954)
Cooling Degree Days 4 2  
Month to date cooling degree days 6  
Year to date cooling degree days 28  
Since 1 June cooling degree days 6  
Growing Degree Days 19 (Base 50)    
Moisture  
Dew Point 40 °F    
Average Humidity 43    
Maximum Humidity 79    
Minimum Humidity 12    
Precipitation  
Precipitation 0.01 in 0.11 in 2.00 in (2002)
Month to date precipitation 0.33  
Year to date precipitation 7.09  
Sea Level Pressure  
Sea Level Pressure 29.79 in    
Wind  
Wind Speed 14 mph (West)    
Max Wind Speed 23 mph    
Max Gust Speed 36 mph    
Visibility 10 miles    
Events Rain , Thunderstorm    
T = Trace of Precipitation, MM = Missing Value Source: NWS Daily Summary

Daily Weather History Graph

Daily Weather History Graph

Search for Another Location

Airport or City:

Trip Planner

Search our weather history database for the weather conditions in past years. The results will help you decide how hot, cold, wet, or windy it might be!

Date:

Astronomy

Jun. 03, 2013 Rise Set
Actual Time 6:23 AM CDT 9:22 PM CDT
Civil Twilight 5:50 AM CDT 9:56 PM CDT
Nautical Twilight 5:08 AM CDT 10:38 PM CDT
Astronomical Twilight 4:18 AM CDT 11:27 PM CDT
Moon 3:24 AM CDT (6/3) 4:53 PM CDT (6/3)
Length of Visible Light 16h 05m
Length of Day
14h 59m
Waning Crescent, 22% of the Moon is Illuminated
Jun 3
Waning Crescent
Jun 8
New
Jun 16
First Quarter
Jun 23
Full
Jun 29
Last Quarter

Hourly Weather History & Observations

Time (CDT) Temp. Dew Point Humidity Pressure Visibility Wind Dir Wind Speed Gust Speed Precip Events Conditions
12:15 AM 63.7 °F 40.6 °F 43% 29.85 in 10.0 mi SSE 20.7 mph 26.5 mph N/A   Clear
12:35 AM 63.1 °F 40.3 °F 43% 29.85 in 10.0 mi SSE 19.6 mph 28.8 mph N/A   Clear
1:15 AM 61.0 °F 41.0 °F 48% 29.84 in 10.0 mi SSE 20.7 mph 25.3 mph N/A   Clear
1:35 AM 59.9 °F 41.4 °F 50% 29.83 in 10.0 mi SSE 20.7 mph - N/A   Clear
1:55 AM 59.2 °F 41.9 °F 53% 29.83 in 10.0 mi SSE 19.6 mph - N/A   Clear
2:15 AM 58.1 °F 41.9 °F 55% 29.83 in 10.0 mi South 17.3 mph 23.0 mph N/A   Clear
2:35 AM 57.6 °F 42.1 °F 56% 29.82 in 10.0 mi South 17.3 mph - N/A   Clear
2:55 AM 56.7 °F 42.3 °F 59% 29.81 in 10.0 mi SSE 15.0 mph - N/A   Clear
3:15 AM 55.6 °F 42.3 °F 61% 29.80 in 10.0 mi SSE 15.0 mph - N/A   Clear
3:35 AM 54.9 °F 42.6 °F 63% 29.81 in 10.0 mi SSE 6.9 mph - N/A   Clear
3:55 AM 53.6 °F 42.8 °F 67% 29.80 in 10.0 mi SSE 4.6 mph - N/A   Clear
4:15 AM 53.2 °F 42.8 °F 68% 29.79 in 10.0 mi South 10.4 mph - N/A   Clear
4:35 AM 52.0 °F 42.8 °F 71% 29.78 in 10.0 mi SSE 11.5 mph - N/A   Clear
4:55 AM 52.2 °F 43.0 °F 71% 29.77 in 10.0 mi South 11.5 mph - N/A   Clear
5:15 AM 51.3 °F 42.8 °F 73% 29.77 in 10.0 mi South 10.4 mph - N/A   Clear
5:35 AM 51.4 °F 43.0 °F 73% 29.77 in 10.0 mi South 12.7 mph - N/A   Clear
5:55 AM 51.4 °F 43.0 °F 73% 29.76 in 10.0 mi South 9.2 mph - N/A   Clear
6:15 AM 50.4 °F 43.0 °F 76% 29.77 in 10.0 mi South 4.6 mph - N/A   Clear
6:35 AM 49.5 °F 42.8 °F 78% 29.76 in 10.0 mi South 6.9 mph - N/A   Clear
6:55 AM 49.5 °F 43.2 °F 79% 29.76 in 10.0 mi South 10.4 mph - N/A   Clear
7:15 AM 50.9 °F 43.7 °F 76% 29.77 in 10.0 mi South 10.4 mph - N/A   Clear
7:35 AM 52.5 °F 44.1 °F 73% 29.76 in 10.0 mi SSW 9.2 mph - N/A   Clear
7:55 AM 54.3 °F 44.6 °F 70% 29.75 in 10.0 mi SSW 9.2 mph - N/A   Clear
8:15 AM 56.5 °F 45.1 °F 66% 29.75 in 10.0 mi SSW 10.4 mph - N/A   Clear
8:35 AM 59.4 °F 45.7 °F 61% 29.75 in 10.0 mi SW 9.2 mph - N/A   Clear
8:55 AM 62.6 °F 46.0 °F 55% 29.75 in 10.0 mi SW 10.4 mph - N/A   Clear
9:15 AM 66.6 °F 45.7 °F 47% 29.75 in 10.0 mi SW 9.2 mph - N/A   Clear
9:35 AM 70.0 °F 45.5 °F 41% 29.75 in 10.0 mi WSW 9.2 mph - N/A   Clear
9:55 AM 74.3 °F 42.6 °F 32% 29.74 in 10.0 mi WSW 10.4 mph - N/A   Clear
10:15 AM 77.7 °F 41.2 °F 27% 29.75 in 10.0 mi West 12.7 mph 17.3 mph N/A   Clear
10:35 AM 76.3 °F 45.9 °F 34% 29.76 in 10.0 mi NW 5.8 mph - N/A   Clear
10:55 AM 81.7 °F 39.0 °F 22% 29.76 in 10.0 mi WNW 10.4 mph - N/A   Clear
11:15 AM 84.0 °F 34.9 °F 17% 29.76 in 10.0 mi West 16.1 mph 24.2 mph N/A   Clear
11:35 AM 84.7 °F 31.1 °F 14% 29.76 in 10.0 mi NW 18.4 mph 24.2 mph N/A   Clear
11:55 AM 83.7 °F 28.2 °F 13% 29.77 in 10.0 mi West 19.6 mph 31.1 mph N/A   Clear
12:15 PM 83.3 °F 31.1 °F 15% 29.77 in 10.0 mi WNW 17.3 mph 23.0 mph N/A   Clear
12:35 PM 84.4 °F 30.6 °F 14% 29.77 in 10.0 mi WNW 16.1 mph 24.2 mph N/A   Clear
12:55 PM 84.9 °F 31.3 °F 14% 29.77 in 10.0 mi NW 15.0 mph 24.2 mph N/A   Clear
1:15 PM 86.5 °F 30.0 °F 13% 29.77 in 10.0 mi WNW 23.0 mph - N/A   Clear
1:35 PM 86.9 °F 28.6 °F 12% 29.76 in 10.0 mi West 23.0 mph 35.7 mph N/A   Clear
1:55 PM 86.9 °F 30.0 °F 13% 29.76 in 10.0 mi West 19.6 mph 27.6 mph N/A   Clear
2:15 PM 87.3 °F 29.8 °F 13% 29.76 in 10.0 mi West 20.7 mph 31.1 mph N/A   Clear
2:35 PM 87.6 °F 30.9 °F 13% 29.75 in 10.0 mi WSW 13.8 mph 25.3 mph N/A   Clear
2:55 PM 88.3 °F 31.5 °F 13% 29.75 in 10.0 mi West 16.1 mph 20.7 mph N/A   Clear
3:15 PM 87.8 °F 30.7 °F 13% 29.74 in 10.0 mi West 11.5 mph 31.1 mph N/A   Clear
3:35 PM 89.4 °F 31.3 °F 13% 29.74 in 10.0 mi WSW 17.3 mph 26.5 mph N/A   Clear
3:55 PM 84.6 °F 32.7 °F 16% 29.75 in 10.0 mi NW 5.8 mph - N/A   Scattered Clouds
4:15 PM 83.1 °F 32.4 °F 16% 29.75 in 10.0 mi North 11.5 mph - N/A   Scattered Clouds
4:35 PM 82.4 °F 31.6 °F 16% 29.75 in 10.0 mi North 12.7 mph 17.3 mph N/A   Scattered Clouds
4:55 PM 82.2 °F 32.7 °F 17% 29.74 in 10.0 mi NNE 12.7 mph 17.3 mph N/A   Clear
5:15 PM 81.5 °F 32.5 °F 17% 29.75 in 10.0 mi North 13.8 mph - N/A   Clear
5:35 PM 79.9 °F 31.8 °F 17% 29.74 in 10.0 mi North 11.5 mph - N/A   Clear
5:55 PM 78.1 °F 32.2 °F 19% 29.76 in 10.0 mi North 6.9 mph - N/A   Scattered Clouds
6:15 PM 72.9 °F 44.6 °F 36% 29.77 in 10.0 mi North 11.5 mph - N/A Thunderstorm Thunderstorm
6:35 PM 72.0 °F 43.3 °F 36% 29.76 in 10.0 mi North 9.2 mph - 0.01 in   Clear
6:55 PM 72.3 °F 38.3 °F 29% 29.77 in 10.0 mi North 10.4 mph - 0.01 in Thunderstorm Mostly Cloudy
7:15 PM 74.1 °F 28.6 °F 19% 29.76 in 10.0 mi North 18.4 mph 21.9 mph N/A   Mostly Cloudy
7:35 PM 72.7 °F 34.5 °F 25% 29.79 in 10.0 mi NE 9.2 mph - N/A   Scattered Clouds
7:55 PM 72.0 °F 37.0 °F 28% 29.82 in 10.0 mi North 6.9 mph - N/A Thunderstorm Thunderstorm
8:15 PM 70.7 °F 37.2 °F 29% 29.81 in 10.0 mi NNE 15.0 mph 23.0 mph N/A Rain Light Rain
8:35 PM 68.0 °F 50.5 °F 54% 29.82 in 10.0 mi NNE 9.2 mph 16.1 mph N/A   Mostly Cloudy
8:55 PM 68.2 °F 47.3 °F 47% 29.81 in 10.0 mi ENE 9.2 mph - N/A   Mostly Cloudy
9:15 PM 67.1 °F 46.0 °F 47% 29.83 in 10.0 mi NNE 9.2 mph - N/A Rain Light Rain
9:35 PM 64.6 °F 45.9 °F 51% 29.83 in 10.0 mi North 8.1 mph - N/A   Mostly Cloudy
9:37 PM 64.4 °F 44.6 °F 49% 29.83 in 10.0 mi North 8.1 mph - N/A   Scattered Clouds
9:55 PM 64.4 °F 46.2 °F 52% 29.83 in 10.0 mi North 8.1 mph - N/A   Scattered Clouds
9:57 PM 64.4 °F 46.4 °F 52% 29.84 in 10.0 mi North 10.4 mph - N/A Rain Light Rain
10:15 PM 62.8 °F 47.3 °F 57% 29.88 in 10.0 mi North 8.1 mph - N/A   Scattered Clouds
10:35 PM 61.9 °F 47.8 °F 60% 29.89 in 10.0 mi NNE 10.4 mph - N/A   Clear
10:55 PM 59.4 °F 48.4 °F 67% 29.90 in 10.0 mi NNE 9.2 mph - N/A   Clear
11:15 PM 59.9 °F 47.3 °F 63% 29.91 in 10.0 mi NNE 9.2 mph - N/A   Clear
11:35 PM 59.0 °F 47.3 °F 65% 29.91 in 10.0 mi NNE 9.2 mph - N/A   Clear
11:55 PM 57.7 °F 47.3 °F 68% 29.91 in 10.0 mi North 10.4 mph - N/A   Clear